Temperature
16 16 16 16 16 16 16 17 17 18 18 17 17 17 16 16 16 16 16 16 16 16 16 16 16 16 16 15 15 15 15 15 15 15 15 15 15 15
16 16 16 16 16 16 16 16 16 17 17 17 17 17 16 16 16 16 15 16 16 16 16 15 15 15 15 15 15 15 15 15 15 15 15 15 15 15
16 16 16 16 16 16 16 16 16 16 16 17 16 16 16 16 16 16 15 15 15 15 15 15 15 15 15 15 15 15 15 15 15 15 15 15 14 14
16 16 16 16 16 16 15 15 16 16 16 16 16 16 15 15 15 15 15 15 15 15 15 15 15 15 15 15 15 15 15 15 14 14 14 14 14 14
15 15 15 15 15 15 15 15 15 15 15 15 16 15 15 15 15 15 15 15 15 15 15 15 15 15 15 15 15 15 14 14 14 14 14 14 14 14
15 15 15 15 15 15 15 15 15 15 15 15 15 15 15 15 15 15 15 15 14 14 14 14 14 14 14 14 14 14 14 14 14 14 14 14 14 14
15 15 15 15 15 15 15 15 15 15 15 15 15 15 15 15 14 14 15 14 14 14 14 14 14 14 14 14 14 14 14 14 14 14 13 13 13 13
14 14 15 15 15 15 15 14 14 14 14 14 15 15 14 14 14 14 14 14 14 14 13 14 14 14 14 13 14 14 13 13 13 13 13 13 13 13
14 14 14 14 14 14 14 14 14 14 14 14 14 14 14 14 13 13 13 13 13 13 13 13 13 13 13 13 13 13 13 13 13 13 13 13 13 13
14 14 14 14 14 14 14 14 14 14 14 14 14 14 13 13 13 13 13 13 13 13 13 13 13 13 13 13 13 13 13 13 13 13 13 13 12 12
14 14 13 13 14 14 13 13 13 13 14 13 13 13 13 13 13 13 13 13 13 13 13 13 13 13 13 13 13 13 12 12 12 12 12 12 12 12
14 14 14 14 13 13 13 13 13 13 13 13 13 13 13 13 13 13 13 13 13 13 13 13 13 13 13 13 12 12 12 12 12 12 12 12 12 11
13 13 13 13 13 13 13 13 12 13 12 12 12 13 13 13 12 12 12 12 12 13 13 12 12 12 12 12 12 12 12 12 12 11 11 11 11 11
13 13 13 13 13 13 13 13 13 12 12 12 12 12 12 12 12 12 12 12 12 12 12 12 12 12 12 12 12 12 12 11 11 11 11 11 11 11
12 12 13 13 12 12 12 12 12 12 12 12 12 12 12 12 12 12 12 12 12 11 11 11 11 11 11 11 11 11 11 11 11 11 11 11 11 11
12 12 12 12 12 12 12 12 12 11 11 11 11 11 11 12 11 11 11 11 11 11 11 11 11 11 11 11 11 11 11 11 11 11 11 10 10 10
12 12 12 12 12 12 12 12 11 11 11 11 11 11 11 11 11 11 11 11 11 11 11 11 11 11 11 11 11 11 11 11 11 11 10 10 10 10
12 12 12 12 12 12 12 11 11 11 11 10 11 11 11 11 11 11 11 11 11 11 10 10 10 10 10 10 10 10 10 10 10 10 10 10 10 10
12 12 12 12 11 11 11 11 11 11 10 10 10 10 10 11 11 11 10 10 10 10 10 10 10 10 10 10 10 10 10 10 10 9 10 10 10 10
11 11 11 11 11 11 11 11 11 11 10 10 10 10 10 10 10 10 10 10 10 10 10 10 10 10 10 10 10 10 10 9 9 9 9 9 9 9
11 11 11 11 11 11 10 10 10 10 10 10 10 10 10 10 10 10 10 10 10 10 10 10 10 9 9 9 9 9 9 9 9 9 9 9 9 9
11 11 11 10 10 10 10 10 10 10 10 10 10 10 10 9 9 9 9 10 9 9 10 10 9 9 9 9 9 9 9 9 9 9 9 9 9 9
10 10 10 10 10 10 10 10 10 10 9 9 9 9 9 9 9 9 9 9 9 9 9 9 9 9 9 9 9 9 9 9 9 9 9 9 9 9
Wind_Speed
4 4 4 4 4 4 5 5 6 6 5 3 3 3 3 3 3 5 4 6 7 6 6 6 5 5 5 6 6 7 7 7 7 7 7 7 7 7
3 4 4 4 4 4 4 5 5 6 6 4 3 3 3 3 4 5 5 7 8 7 7 7 7 7 7 7 7 7 7 7 6 7 7 7 8 8
4 4 4 5 5 4 4 5 5 6 6 6 4 2 3 4 3 5 6 6 6 8 7 7 7 8 8 8 7 7 7 7 7 7 7 7 7 8
4 4 5 4 4 5 4 5 5 5 6 7 5 4 4 4 4 5 5 5 5 8 9 8 7 8 8 8 8 7 7 7 7 7 7 7 7 8
5 5 5 5 5 4 5 5 5 5 5 6 6 4 4 4 4 5 6 5 6 6 9 9 8 8 8 8 7 7 7 7 7 7 7 7 7 7
5 5 5 4 5 5 4 4 5 5 5 5 5 4 4 3 4 5 5 4 5 5 4 6 8 10 9 8 8 7 7 7 6 6 6 6 6 6
5 5 5 3 3 4 5 4 4 5 5 5 5 4 4 4 5 5 5 5 5 5 4 4 5 6 7 9 9 8 8 7 7 6 6 6 5 5
5 5 4 4 3 4 4 5 5 5 5 5 5 5 5 5 5 6 5 5 5 3 4 4 4 4 4 4 6 8 8 7 7 7 6 6 6 6
5 5 5 3 2 3 4 5 5 5 6 6 6 6 6 5 5 7 6 6 6 3 4 5 4 5 4 3 8 8 7 7 7 7 6 6 7 7
5 5 4 4 3 4 4 4 4 4 4 5 5 6 6 5 6 7 7 7 6 5 4 5 4 4 3 2 8 8 8 7 7 7 6 6 6 7
5 4 4 4 2 4 5 5 4 4 3 4 5 5 4 5 5 5 5 5 5 4 3 4 4 3 3 3 4 9 9 9 9 8 7 6 6 7
4 4 3 2 2 3 4 4 4 4 5 4 4 5 5 5 6 7 6 6 6 4 2 3 3 2 3 2 2 3 5 8 10 9 8 7 7 6
4 4 1 2 2 4 5 4 4 5 5 4 4 3 3 3 4 5 5 5 6 5 2 3 3 3 3 3 3 3 3 3 4 6 8 8 7 7
5 4 2 1 4 5 4 3 4 5 4 4 3 3 3 3 3 3 3 4 4 5 3 3 4 3 4 4 3 3 3 3 4 4 4 6 8 9
4 2 2 3 4 4 4 4 4 4 3 3 4 4 4 3 3 3 3 3 4 4 3 4 4 4 4 4 4 3 3 3 3 4 4 4 4 5
4 3 6 7 6 4 4 4 3 3 3 4 4 4 4 3 3 3 3 3 3 3 3 4 5 4 5 5 5 4 4 4 4 4 4 4 4 5
4 4 3 3 3 3 3 3 3 3 3 4 4 4 4 4 3 3 3 3 4 4 3 3 4 4 4 5 6 5 4 4 4 4 4 5 5 4
4 5 4 4 3 3 3 3 3 3 3 4 4 4 4 4 4 4 3 4 4 5 4 3 3 3 4 4 4 5 4 4 4 3 4 5 5 4
5 4 4 4 4 4 4 4 4 3 3 4 4 4 4 4 4 4 4 4 5 5 4 3 3 3 4 5 3 3 5 4 4 4 5 5 5 4
4 4 4 4 4 4 4 4 4 4 4 4 4 4 4 4 5 5 5 5 5 5 4 4 4 3 4 5 4 5 6 5 4 4 4 4 4 2
4 4 4 4 4 4 4 5 5 4 4 4 4 4 5 5 5 5 5 5 6 6 5 4 2 3 4 4 4 4 3 3 4 4 4 4 5 5
4 4 4 4 4 4 5 5 5 5 5 5 5 4 4 5 5 6 6 5 5 5 6 4 3 3 4 5 5 5 4 2 3 5 4 4 4 5
4 4 4 4 4 4 5 5 5 4 4 4 4 4 4 5 5 5 5 5 5 5 5 5 4 3 4 5 5 4 4 4 3 4 3 4 6 6
Wind_Direction
264 260 265 269 266 268 269 269 275 281 274 245 250 242 244 238 195 227 224 187 198 213 222 225 226 222 219 220 225 231 235 238 242 239 235 232 233 234
273 284 279 279 279 270 264 264 266 272 279 278 255 252 256 255 201 233 232 194 201 213 222 229 233 227 222 222 226 230 231 234 234 235 232 228 229 232
265 268 273 286 283 281 275 265 260 261 267 277 274 252 243 261 245 248 238 229 210 195 210 227 235 233 227 225 227 229 229 228 229 232 232 232 230 231
265 271 274 270 274 279 285 279 271 261 259 268 272 260 249 248 245 249 247 239 239 187 199 219 231 233 230 227 227 227 227 227 228 230 232 232 232 231
268 270 273 274 275 279 275 279 278 271 264 263 262 263 258 251 252 249 247 246 252 209 200 210 221 228 227 224 223 225 224 226 228 230 232 234 233 231
268 269 270 270 270 273 270 273 280 282 272 267 266 261 257 252 252 258 254 241 253 256 235 229 216 216 217 217 218 223 223 223 225 227 228 231 230 227
263 264 262 264 290 283 287 287 281 278 277 271 268 267 268 269 264 264 263 259 244 257 254 247 226 225 214 213 213 217 219 218 220 223 223 223 223 225
262 262 252 232 227 244 280 287 285 276 281 280 271 272 273 269 270 269 270 264 265 247 253 257 246 244 235 231 188 193 207 213 215 215 214 216 217 221
264 269 272 266 242 262 251 242 258 258 264 273 274 274 275 273 272 266 264 270 273 270 257 256 246 245 236 204 158 179 195 207 213 215 217 218 218 219
257 261 270 283 289 293 276 272 272 270 260 261 271 273 276 276 264 264 269 261 261 253 240 259 256 258 256 210 161 177 191 203 210 212 214 221 222 220
253 253 258 270 318 304 272 272 278 282 263 259 276 278 285 274 272 265 264 264 269 262 238 254 261 260 259 241 179 178 191 198 202 205 210 218 224 226
252 243 210 254 286 273 265 274 278 288 297 280 260 248 251 244 234 244 256 264 272 269 233 244 260 259 262 240 216 198 203 200 201 203 207 215 222 231
268 267 250 148 235 254 265 272 286 287 273 275 275 271 262 255 244 241 251 263 272 274 271 244 264 253 255 252 242 227 222 217 207 208 208 210 215 228
269 281 298 179 239 247 251 268 276 270 267 271 275 280 280 278 272 263 256 259 272 279 294 269 262 253 253 258 260 250 233 229 232 234 223 194 210 222
269 295 271 231 236 231 206 226 245 259 275 276 276 278 281 285 279 264 246 241 249 256 254 253 262 258 255 260 261 261 262 251 240 242 242 231 227 220
264 235 214 217 228 230 217 224 246 266 275 276 281 285 286 277 274 277 272 263 265 265 240 235 248 259 256 262 260 259 259 259 251 250 250 249 241 227
260 251 246 239 246 248 244 239 246 251 259 273 277 279 281 278 272 272 268 261 263 267 264 249 246 246 259 267 257 258 259 260 258 253 249 251 247 231
243 244 247 253 256 262 265 258 247 252 261 266 273 277 278 278 274 268 272 266 265 265 260 253 242 248 256 258 262 260 260 261 261 246 242 249 249 235
234 247 253 258 261 263 269 269 263 257 260 263 271 275 278 279 279 275 271 268 266 267 266 258 247 248 262 271 262 240 265 268 258 252 244 247 252 246
242 258 265 265 265 267 272 276 274 265 256 259 265 272 277 284 287 282 278 278 278 274 265 256 250 254 264 276 279 273 244 256 255 254 254 255 258 247
254 261 268 273 275 275 276 273 271 268 266 265 266 268 272 277 282 283 279 273 275 278 275 269 253 232 262 271 264 262 257 221 237 256 258 254 250 241
271 272 272 273 275 276 275 273 272 269 266 263 267 270 273 275 277 279 283 283 277 281 286 280 261 242 251 255 257 262 260 243 213 207 231 263 265 262
271 275 278 276 272 269 272 273 275 276 274 274 276 278 280 278 278 278 279 279 277 281 282 274 265 255 256 258 260 262 260 255 246 237 239 212 217 233
Height
1544 1543 1543 1543 1543 1542 1542 1542 1542 1540 1539 1539 1539 1538 1538 1537 1536 1535 1535 1535 1534 1534 1534 1534 1534 1534 1534 1534 1533 1533 1533 1533 1532 1532 1532 1532 1533 1533
1541 1540 1540 1540 1540 1539 1539 1539 1539 1538 1537 1537 1536 1536 1535 1535 1533 1533 1532 1531 1531 1531 1531 1531 1531 1531 1531 1531 1530 1530 1529 1529 1529 1529 1529 1529 1529 1530
1538 1538 1537 1537 1537 1537 1536 1536 1535 1535 1534 1534 1533 1532 1531 1531 1530 1530 1529 1529 1528 1527 1527 1527 1527 1527 1527 1527 1527 1526 1526 1526 1526 1525 1525 1526 1526 1527
1536 1535 1535 1534 1533 1533 1533 1532 1532 1531 1531 1530 1529 1529 1528 1527 1527 1526 1526 1526 1525 1524 1524 1524 1524 1524 1523 1523 1523 1523 1522 1522 1522 1522 1522 1522 1522 1523
1533 1532 1532 1531 1530 1530 1529 1529 1529 1529 1528 1527 1526 1525 1525 1524 1523 1523 1523 1522 1522 1522 1520 1520 1520 1520 1520 1519 1519 1519 1519 1518 1518 1518 1518 1518 1519 1519
1530 1529 1529 1528 1528 1527 1527 1526 1526 1525 1525 1524 1523 1522 1522 1521 1520 1520 1520 1519 1519 1519 1517 1517 1516 1516 1515 1515 1515 1515 1515 1515 1515 1515 1515 1515 1515 1516
1527 1526 1525 1525 1524 1524 1524 1524 1523 1522 1522 1521 1520 1519 1519 1518 1517 1517 1516 1516 1515 1515 1514 1513 1513 1512 1512 1511 1511 1511 1511 1511 1511 1511 1511 1511 1511 1512
1524 1523 1522 1522 1521 1521 1520 1520 1519 1519 1518 1517 1516 1516 1514 1514 1513 1513 1513 1512 1511 1511 1510 1510 1510 1509 1509 1509 1508 1508 1508 1508 1508 1508 1508 1508 1508 1508
1521 1520 1520 1520 1518 1517 1517 1516 1516 1515 1514 1514 1512 1511 1511 1510 1510 1509 1509 1508 1507 1507 1506 1506 1506 1505 1505 1505 1504 1504 1504 1504 1504 1504 1505 1505 1505 1505
1517 1517 1516 1516 1515 1514 1513 1513 1512 1512 1511 1510 1508 1507 1507 1506 1505 1505 1505 1504 1503 1502 1502 1503 1502 1502 1502 1502 1501 1501 1501 1501 1501 1501 1501 1502 1502 1502
1514 1513 1512 1512 1511 1510 1510 1509 1509 1508 1507 1506 1505 1504 1502 1502 1501 1502 1501 1501 1500 1500 1499 1499 1499 1499 1499 1498 1498 1497 1497 1497 1498 1498 1498 1499 1499 1499
1511 1510 1509 1508 1507 1507 1507 1506 1505 1504 1503 1502 1501 1500 1499 1498 1498 1498 1498 1498 1498 1497 1496 1496 1496 1496 1496 1496 1495 1495 1495 1495 1495 1495 1496 1496 1496 1496
1508 1507 1506 1505 1504 1503 1503 1503 1502 1501 1500 1499 1498 1497 1496 1495 1495 1494 1494 1494 1495 1494 1494 1493 1494 1493 1494 1493 1493 1493 1493 1493 1493 1493 1493 1493 1493 1493
1504 1504 1503 1502 1501 1500 1500 1499 1499 1498 1498 1497 1496 1495 1494 1493 1492 1491 1490 1490 1490 1490 1490 1490 1490 1490 1491 1491 1491 1491 1491 1490 1490 1490 1490 1490 1490 1490
1501 1500 1499 1499 1498 1498 1497 1496 1496 1496 1495 1494 1493 1493 1492 1490 1489 1487 1487 1486 1486 1486 1486 1486 1487 1487 1487 1488 1488 1487 1488 1488 1487 1487 1487 1487 1487 1487
1498 1497 1496 1496 1495 1495 1495 1494 1493 1493 1492 1492 1491 1490 1489 1488 1487 1486 1485 1484 1484 1483 1483 1483 1483 1483 1484 1484 1485 1484 1484 1484 1484 1484 1484 1484 1484 1484
1494 1494 1494 1494 1493 1493 1492 1491 1491 1490 1489 1489 1488 1487 1486 1485 1484 1483 1482 1482 1481 1480 1480 1479 1480 1479 1480 1481 1481 1481 1480 1481 1481 1480 1480 1480 1480 1480
1491 1492 1491 1491 1490 1490 1489 1489 1488 1487 1487 1486 1485 1484 1483 1482 1482 1481 1480 1479 1478 1477 1477 1476 1476 1476 1477 1477 1477 1477 1477 1477 1477 1476 1476 1477 1477 1477
1488 1489 1489 1488 1488 1487 1487 1486 1485 1485 1484 1483 1483 1482 1481 1480 1479 1478 1477 1477 1476 1475 1474 1474 1473 1473 1473 1473 1473 1473 1473 1473 1473 1473 1473 1473 1473 1474
1486 1486 1486 1486 1485 1484 1484 1483 1482 1482 1481 1480 1480 1479 1479 1478 1477 1476 1475 1474 1473 1472 1471 1471 1470 1470 1470 1470 1470 1470 1470 1470 1470 1470 1470 1470 1470 1470
1483 1483 1483 1483 1482 1482 1481 1480 1479 1478 1478 1477 1477 1476 1475 1475 1474 1473 1472 1471 1470 1469 1468 1468 1467 1467 1467 1467 1467 1467 1467 1466 1466 1466 1467 1467 1467 1467
1481 1480 1480 1479 1479 1478 1477 1477 1476 1476 1475 1474 1474 1473 1472 1471 1471 1470 1469 1468 1467 1466 1466 1465 1464 1464 1464 1464 1463 1463 1463 1463 1463 1463 1463 1463 1463 1463
1477 1477 1477 1476 1476 1475 1474 1473 1473 1472 1472 1471 1470 1469 1468 1468 1467 1467 1466 1465 1465 1464 1463 1462 1462 1461 1461 1461 1460 1460 1460 1460 1460 1460 1461 1460 1460 1460